STARLINK-31875, 59674

Orbit data source: Space-Track

STARLINK-31875, 59674 is a payload satellite owned by SpaceX/Seattle (US) in LEO that was launched on Mon, 06 May 2024 UTC via an FALCON 9 launch vehicle from the Air Force Eastern Test Range (AFETR). Payload-class satellites include a variety of spacecraft equipped with specific instruments for various scientific and technological missions. These include communications satellites like Starlink; space stations such as the ISS; scientific satellites like the Hubble; Earth observation satellites from companies like Planet Labs, Umbra, and HawkEye 360; GPS; miniature CubeSats for education and research; and military/defense satellites.

Loading next visibility...
Identifier
59674, 2024-084W
Orbit
LEO
Country
Flag of USUS
Related business
Manufacturer
SpaceX/Seattle
Mission
Operational Commercial Communications
Bus & Motor
STARLINK V2M, Unknown motor
Mass
730 kg wet, ~700 kg dry
Launch date (UTC)
2024-05-06 (2 years ago)
Launch vehicle
FALCON 9
Launch site
Air Force Eastern Test Range (AFETR)
Object type
Payload
Rocket body
Debris
Shape & HBR
Box + 2 Pan, 17.7 m
Radar Cross Section
33.884 m², Large (>1 m²)

Expand to show TLE details & history
Last TLE update: 2 days ago

TLE from 2 days ago
0 STARLINK-31875
1 59674U 24084W   26171.34109196  .00000934  00000-0  43469-4 0  9995
2 59674  43.0031 178.5053 0001528 277.8644  82.2034 15.27579222120113
Epoch: 2026-06-20T08:11Z
TLE epoch observation values (Epoch: 2026-06-20T08:11:10.345Z)
Latitude
-0.00003°
Longitude
147.15506°
Altitude
482.685 km
Speed
7.626 km/s
True Right ascension
11h 54m 01s
True Declination
0° 00' 00"
Sunlit
Object was in daylight at epoch
Visualization orbit readout
Latitude
Unknown
Longitude
Unknown
Altitude
Unknown
Speed
Unknown
Apparent Right ascension
Unknown
Apparent Declination
Unknown
Sunlit
N/A
Visualization observer readout
Local Sidereal Time
21:41:46
Azimuth
Unknown
Elevation
Unknown
Doppler factor
Unknown
Orbital elements
Apogee altitude
486.045 km
Perigee altitude
483.947 km
Semi-major axis
6,863.133 km
Eccentricity
0.00015
Inclination
43.0031°
RAAN
178.5053°
Arg. of periapsis
277.8644°
True anomaly
82.22075°
Mean anomaly
82.2034°
Eccentric anomaly
82.21207°
Mean motion
3.81733 °/min
Orbital period
94.31 mins
BSTAR
0.000043469
Loading maneuver chart data...
Computing Atmospheric mass density...
Loading historical data...
Loading historical data...
Loading historical data...
Loading historical data...
Loading historical data...
Loading historical data...
Loading historical data...

Documentation

Showing up to 5 results
|